Precipitable_Water
1.13 1.13 1.08 1.04 1.03 1.06 1.10 1.08 0.99 0.92 1.00 1.02 1.07 1.19 1.45 1.48 1.46 1.44 1.41 1.38 1.38 1.33
1.17 1.17 1.15 1.08 1.10 1.11 1.17 1.12 0.96 0.98 0.98 1.01 1.03 1.21 1.39 1.40 1.43 1.45 1.42 1.40 1.39 1.35
1.19 1.21 1.30 1.14 1.10 1.10 1.18 1.08 1.00 0.98 0.98 0.98 1.00 1.14 1.28 1.34 1.42 1.42 1.41 1.41 1.37 1.36
1.21 1.25 1.33 1.14 1.15 1.13 1.20 1.06 1.01 1.00 0.97 0.95 0.94 1.05 1.16 1.27 1.37 1.39 1.37 1.38 1.35 1.32
1.23 1.29 1.25 1.12 1.20 1.19 1.18 1.06 1.06 1.03 0.98 0.95 0.95 1.01 1.08 1.18 1.30 1.33 1.32 1.30 1.29 1.29
1.09 1.22 1.16 1.14 1.27 1.21 1.19 1.09 1.10 1.05 1.00 0.95 0.95 1.01 1.06 1.11 1.19 1.25 1.26 1.28 1.28 1.29
1.13 1.16 1.28 1.29 1.30 1.23 1.22 1.11 1.08 1.06 1.04 0.98 0.99 1.04 1.11 1.13 1.15 1.17 1.22 1.30 1.32 1.31
1.09 1.21 1.29 1.28 1.28 1.26 1.23 1.17 1.13 1.08 1.07 1.02 0.99 1.00 1.02 1.05 1.15 1.10 1.14 1.21 1.25 1.27
1.02 1.11 1.14 1.17 1.19 1.21 1.20 1.17 1.12 1.06 1.01 0.96 0.90 0.93 0.99 1.05 1.13 1.10 1.16 1.17 1.16 1.22
0.93 1.00 1.04 1.05 1.13 1.09 1.10 1.09 1.08 1.02 1.00 0.96 0.93 0.94 0.98 1.04 1.02 1.07 1.02 1.04 1.04 1.09
0.84 0.93 0.97 1.00 1.04 1.06 1.03 1.01 1.03 0.98 0.98 0.98 0.99 1.00 0.98 0.99 0.97 0.94 0.93 0.92 0.98 0.95
0.78 0.83 0.89 0.89 0.93 0.97 0.98 0.98 0.99 0.97 0.96 0.95 0.94 1.01 1.00 0.97 0.93 0.89 0.88 0.91 0.93 0.96
0.78 0.82 0.78 0.86 0.85 0.92 0.92 0.91 0.91 0.91 0.91 0.93 0.97 0.98 0.99 0.99 0.96 0.91 0.87 0.89 0.91 0.91
0.74 0.77 0.78 0.81 0.80 0.83 0.85 0.85 0.84 0.82 0.84 0.86 0.88 0.91 0.94 0.92 0.89 0.87 0.85 0.81 0.84 0.88
Wind_Speed
33 31 30 29 27 26 24 22 20 20 19 19 19 18 18 22 25 30 33 34 35 33
33 33 31 30 29 27 24 22 21 19 18 17 16 14 14 18 25 30 29 33 35 33
33 33 32 31 29 28 25 23 21 19 18 17 15 15 14 15 20 28 31 31 34 33
32 33 33 31 30 29 26 23 22 20 19 17 15 14 15 15 18 22 26 28 30 30
31 32 33 32 31 29 26 24 22 21 19 19 17 16 15 16 18 20 23 25 27 28
30 31 32 32 31 29 27 24 23 22 21 20 19 19 19 18 20 23 23 24 26 26
26 29 30 31 31 30 28 25 24 22 21 20 20 21 22 22 23 24 25 25 25 26
24 26 27 28 29 29 28 26 24 23 21 21 20 20 21 22 24 24 25 26 27 27
21 26 26 27 28 27 26 24 23 22 21 20 21 21 22 23 24 25 25 27 28 29
18 22 25 26 26 27 27 25 23 23 23 22 21 22 23 23 23 23 23 23 23 25
15 18 21 24 24 25 25 24 24 23 23 22 21 21 22 23 24 24 24 24 24 25
11 14 18 22 22 24 24 23 22 22 22 24 24 23 24 25 25 24 23 23 24 25
7 9 12 16 18 20 23 24 23 23 25 25 24 25 26 26 27 27 27 26 26 27
6 6 8 13 14 17 17 20 21 22 23 24 25 27 28 29 28 29 28 27 26 26
Wind_Direction
242 243 239 238 234 235 242 252 261 262 264 267 270 269 247 232 223 213 211 211 210 212
239 239 237 235 232 233 241 250 258 257 260 265 266 254 244 230 219 209 211 210 211 215
238 239 235 231 230 231 238 247 252 252 254 257 258 246 244 230 219 216 214 213 212 218
239 238 232 230 229 229 236 243 247 247 249 249 248 243 234 227 222 211 210 210 208 213
239 236 229 228 226 227 233 239 241 243 245 245 242 238 230 221 210 205 206 208 212 217
238 231 228 225 225 226 230 234 239 241 242 242 239 235 230 226 220 218 217 218 222 224
232 227 224 223 224 225 229 232 237 240 240 241 239 236 235 233 228 224 224 225 225 226
231 224 224 225 223 225 228 232 235 237 239 241 237 237 233 232 229 228 227 230 232 234
232 226 227 226 225 226 228 231 233 236 237 239 239 240 237 234 230 232 233 235 238 235
234 228 226 228 224 228 230 231 234 237 238 242 243 241 237 235 233 231 234 234 234 233
240 228 226 226 225 225 228 232 234 236 240 241 242 240 236 234 234 235 236 238 238 239
233 230 227 228 228 223 225 227 233 238 242 243 245 243 239 237 236 236 238 241 242 243
220 218 229 219 222 222 227 231 236 240 245 248 247 244 242 240 238 238 242 245 249 252
243 217 238 232 239 224 228 230 237 244 247 249 250 246 246 240 242 241 243 247 250 251